Location: Lafig�re
(44.4503°N, 4.0357°E)
Time: 16:14:47
(UTC+00:00)

Lacrosse 4 Rocket - Pass Details

Date: 24 September 2020
Orbit: 543 x 615 km, 68.0° (Epoch: 26 October)

Event Time Altitude Azimuth Distance (km) Brightness Sun altitude
Rises 19:48:08 0° 337° (NNW) 2,719 5.5 -23.6°
Reaches altitude 10° 19:50:31 10° 348° (NNW) 1,827 4.4 -24.0°
Enters shadow 19:52:48 25° 16° (NNE) 1,146 3.0 -24.4°
